SCP
0 0 0 0 0 0 0 0 0 0 0 0 0 0 0 0 0 0 0 0 0 0 0 -0 -0 -0 -0 -0 -0 0 0 0 0 0 0 0 0 0 0 0 0 0 0
0 0 0 0 0 0 0 0 0 0 0 0 0 0 0 0 0 0 0 0 0 0 0 -0 -0 -0 -0 -0 0 0 0 0 0 0 0 0 0 0 0 0 0 0 0
0 0 0 0 0 0 0 0 0 0 0 0 0 0 0 0 0 0 0 0 0 0 0 0 0 -0 -0 0 0 0 0 0 0 0 0 0 0 0 0 0 0 0 0
0 0 0 0 0 0 0 0 0 0 0 0 0 0 0 0 0 0 0 0 0 0 0 0 0 0 0 0 0 0 0 0 0 0 0 0 0 0 0 0 0 0 0
0 0 0 0 0 0 0 0 0 0 0 0 0 0 0 0 0 0 0 0 0 0 0 0 0 0 0 0 0 0 0 0 0 0 0 0 0 0 0 0 0 0 0
0 0 0 0 0 0 0 0 0 0 0 0 0 0 0 0 0 0 0 0 0 0 0 0 0 0 0 0 0 0 0 0 0 0 0 0 0 0 0 0 0 0 0
0 0 0 0 0 0 0 0 0 0 0 0 0 0 0 0 0 0 0 0 0 0 0 0 0 0 0 0 0 0 0 0 0 0 0 0 0 0 0 0 0 0 0
0 0 0 0 0 0 0 0 0 0 0 0 0 0 0 0 0 0 0 0 0 0 0 0 0 0 0 0 0 0 0 0 0 0 0 0 0 0 1 1 0 0 0
0 0 0 0 0 0 0 0 0 0 0 0 0 0 0 0 0 0 0 0 0 0 0 0 0 0 0 0 0 0 0 0 0 0 0 0 0 0 1 1 1 0 0
0 0 0 0 0 0 0 0 0 0 0 0 0 0 0 0 0 0 0 0 0 0 0 0 0 0 0 0 0 0 0 0 0 0 0 0 0 1 1 1 1 1 1
0 0 0 0 0 0 0 0 0 0 0 0 0 0 0 0 0 0 0 0 1 1 1 1 0 0 0 0 0 0 0 0 0 0 0 0 0 1 1 1 1 1 1
0 0 0 0 0 0 0 0 0 0 0 0 0 0 0 0 0 0 0 0 1 1 1 1 1 0 0 0 0 0 0 0 0 0 0 0 0 1 1 1 1 1 1
0 0 0 0 0 0 0 0 0 0 0 0 0 0 0 0 0 0 0 0 1 1 1 1 0 0 0 0 0 0 0 0 0 0 0 0 1 1 1 1 1 1 1
0 0 0 0 0 0 0 0 0 0 0 0 0 0 0 0 0 0 0 0 0 1 1 0 0 0 0 0 0 0 0 0 0 0 0 0 1 1 1 1 1 1 1
1 1 0 0 0 0 0 0 0 0 0 0 0 0 0 0 0 0 0 0 0 0 0 0 0 0 0 0 0 0 0 0 0 0 0 1 1 1 1 1 1 1 1
1 1 1 1 1 1 1 1 1 1 1 1 1 1 1 0 0 0 0 0 1 1 1 1 0 0 0 0 0 0 0 0 0 0 0 1 1 1 1 1 1 1 1
2 2 2 1 1 1 1 1 1 1 1 1 1 1 1 1 1 1 1 1 1 1 1 1 1 0 0 0 0 0 0 0 0 0 0 0 1 1 1 1 1 1 1
3 3 2 2 2 2 2 2 2 2 2 1 1 1 1 1 1 1 1 1 1 1 1 1 1 1 0 0 0 0 0 0 0 0 0 0 0 1 1 1 1 1 1
3 4 4 3 2 2 2 2 2 2 2 2 1 1 1 1 1 2 2 2 2 1 1 1 1 1 1 1 0 0 0 0 0 0 0 0 0 0 0 1 1 1 1
5 5 5 5 4 3 3 2 2 2 2 2 2 1 1 2 2 2 2 2 2 2 2 2 1 1 1 1 1 0 0 0 0 0 0 0 0 0 0 0 1 1 1
7 6 6 6 5 4 4 3 3 2 2 2 2 2 2 2 2 2 2 2 2 2 2 2 2 2 1 1 1 0 0 0 0 0 0 0 0 0 0 0 0 0 0
7 6 6 5 5 5 4 4 3 3 2 2 2 2 2 2 2 2 2 2 2 2 2 2 2 2 2 1 1 0 0 0 0 0 0 0 0 0 0 0 0 0 0
8 7 6 6 5 5 5 4 4 3 3 2 2 2 2 1 2 2 2 2 2 2 2 2 2 2 2 1 1 0 0 0 0 0 0 0 0 0 0 0 0 0 0
9 9 7 6 6 5 5 5 4 3 3 2 2 2 2 2 2 2 2 2 2 2 2 2 2 2 1 1 1 0 0 0 0 0 0 0 0 0 0 0 0 0 0
11 10 8 7 6 4 4 4 4 3 3 2 2 2 2 2 2 2 2 2 2 2 2 2 2 2 1 1 1 0 0 0 0 0 0 0 0 0 0 0 0 0 0
11 10 8 7 6 4 3 3 3 3 2 2 2 2 2 2 2 2 2 2 2 2 2 2 2 1 1 1 1 0 0 0 0 0 0 0 0 0 0 0 0 0 0
Wind_Speed
7 9 17 19 18 16 15 15 14 14 14 14 14 14 14 13 13 12 12 12 11 10 9 8 8 8 9 10 10 11 11 11 12 12 12 11 10 10 10 11 10 7 10
12 12 17 19 19 17 16 15 14 14 13 13 13 13 12 12 11 11 11 11 11 10 9 8 7 7 8 8 9 9 9 9 9 9 9 8 8 8 9 11 10 6 9
15 12 16 19 19 18 17 16 15 14 13 13 12 12 11 11 11 10 10 10 9 9 8 7 6 6 7 7 7 6 6 6 6 7 7 3 3 7 10 11 10 9 8
15 10 14 19 19 18 17 16 15 14 13 13 12 11 11 11 10 10 9 9 8 7 7 6 6 6 6 6 5 4 4 4 4 4 3 2 2 6 9 12 11 9 8
11 9 13 20 18 18 17 16 15 14 13 12 12 11 11 10 10 10 9 8 7 7 6 5 5 5 5 5 4 4 3 3 3 3 2 2 3 6 9 11 12 11 9
10 8 12 18 17 16 16 16 15 14 13 13 12 12 11 10 10 10 9 8 7 6 6 5 4 5 5 5 4 4 4 5 4 2 3 4 5 10 12 12 13 12 10
10 8 11 17 16 15 15 16 15 14 14 13 13 12 11 11 10 10 9 8 7 6 5 5 4 5 5 5 5 5 5 7 4 3 4 5 6 13 15 14 13 13 12
13 9 10 17 17 16 15 16 15 15 14 13 13 12 11 11 10 10 9 9 7 6 6 5 5 5 5 5 5 6 7 8 6 4 3 4 8 14 17 15 13 13 13
14 11 8 9 12 15 16 15 15 15 14 13 12 12 12 11 10 10 8 8 8 7 7 7 7 6 6 6 7 7 8 10 6 4 6 4 6 14 18 17 15 15 14
12 11 9 7 7 7 9 14 15 14 14 13 13 13 12 11 10 10 8 9 10 10 9 9 9 9 8 8 8 9 10 10 5 5 4 5 10 15 19 18 17 17 16
11 9 9 9 7 7 7 11 12 14 14 13 11 13 11 5 5 6 9 12 13 12 11 11 11 10 9 9 10 11 10 4 5 5 5 9 11 15 18 18 18 17 17
14 12 10 10 10 8 8 7 5 6 6 7 5 7 5 5 5 7 9 15 16 14 13 13 12 10 8 4 7 10 5 6 6 6 6 13 14 16 18 18 17 17 16
16 14 12 12 11 10 6 6 4 4 4 5 7 7 5 5 4 5 4 7 9 10 6 7 7 5 5 4 4 5 6 6 5 5 7 14 16 16 16 17 16 16 15
15 15 13 13 11 10 7 7 6 5 5 5 7 8 6 4 4 4 4 4 4 3 4 4 3 5 6 7 7 7 8 6 6 5 7 15 14 13 13 14 15 14 13
14 14 15 13 12 10 8 7 7 7 7 7 7 8 8 5 5 4 4 4 4 3 4 4 5 5 6 7 7 8 8 8 8 7 5 12 13 12 13 14 14 14 14
13 13 14 12 11 9 8 6 5 6 7 6 7 8 9 6 5 4 4 4 4 4 4 4 5 5 5 5 6 6 6 6 7 7 6 7 12 13 13 14 15 15 15
11 11 12 12 9 8 8 6 4 4 6 6 6 8 8 7 6 5 4 4 4 3 3 3 4 3 4 4 5 6 5 6 6 6 6 5 6 11 14 15 15 15 16
9 10 11 12 9 8 6 5 3 2 3 3 4 5 8 7 6 5 4 4 3 2 2 2 2 2 3 3 4 4 4 4 6 6 6 5 5 5 9 14 15 15 16
9 11 11 10 10 8 7 5 4 2 2 2 2 3 5 6 6 5 4 4 3 2 2 2 2 2 3 4 4 4 4 4 5 6 6 7 6 6 6 9 14 14 15
7 9 10 9 10 8 6 4 2 2 2 2 2 2 4 4 5 4 4 4 3 2 2 2 3 3 3 4 4 4 4 5 5 5 7 6 6 7 7 7 6 8 14
6 8 9 8 8 7 4 4 3 3 3 2 2 3 3 3 4 4 3 4 4 4 4 4 3 4 3 2 2 4 4 5 5 5 5 5 5 6 6 7 6 5 5
8 8 7 6 6 7 6 5 3 3 3 3 2 2 3 3 4 4 4 4 4 4 5 5 4 3 3 3 3 2 4 5 3 3 2 3 4 3 6 7 6 6 6
7 7 6 5 5 5 5 3 2 2 1 1 1 2 3 4 4 4 4 4 5 5 5 6 5 6 4 3 3 4 3 4 3 3 2 2 3 4 5 5 6 6 6
4 4 5 4 3 2 3 3 4 3 3 2 2 1 2 2 3 3 4 5 5 4 5 6 6 5 5 4 3 3 4 4 2 4 3 2 3 4 6 5 5 5 4
5 5 5 5 4 3 3 3 3 2 1 1 0 1 1 1 1 1 2 3 4 4 5 6 5 5 4 4 3 3 3 3 4 4 4 4 3 3 3 5 6 5 3
4 5 4 5 4 4 4 4 4 4 3 3 3 2 2 2 2 3 2 2 2 2 4 4 4 5 4 4 3 2 2 2 2 3 4 3 4 4 4 4 4 3 3
Wind_Direction
147 151 144 140 137 135 132 129 124 117 109 103 100 98 98 98 100 105 110 111 110 111 112 111 106 98 96 98 101 105 109 112 112 114 113 108 103 105 112 110 104 98 99
147 151 143 141 140 138 136 133 131 126 120 114 110 107 106 105 105 108 114 115 112 109 109 108 107 106 104 105 107 110 112 114 115 118 118 113 110 112 129 125 116 118 113
140 145 142 141 142 141 140 139 138 135 131 126 122 120 117 116 114 115 119 121 119 115 111 107 104 111 116 114 116 119 120 120 122 126 124 110 117 124 128 131 130 129 128
138 141 143 143 144 144 144 144 143 143 141 138 135 133 130 127 125 122 124 127 129 128 124 120 116 117 128 132 134 138 142 142 149 159 155 178 191 157 150 145 144 145 146
135 139 147 145 145 147 148 148 148 148 148 147 146 144 142 139 135 132 132 134 137 139 138 139 140 141 145 152 160 175 196 207 215 229 240 226 229 194 183 166 159 160 163
134 140 147 144 145 147 149 150 152 153 154 154 155 155 154 151 148 145 143 142 142 146 148 150 159 163 169 175 186 206 231 248 250 241 257 255 228 207 201 189 174 170 174
139 143 146 145 145 146 150 154 155 157 159 160 162 163 164 163 161 159 157 155 155 157 159 163 171 178 187 195 206 223 244 261 260 237 241 257 227 202 203 202 188 181 184
146 145 148 150 149 150 151 155 158 161 163 165 168 169 170 170 169 169 171 172 173 177 181 188 195 197 203 208 216 229 243 259 272 278 269 266 228 205 204 206 198 193 194
149 149 150 153 155 157 158 160 163 165 167 170 172 175 177 179 180 183 185 189 195 200 206 211 217 219 219 218 224 235 247 257 262 263 276 276 237 213 210 207 204 203 203
151 155 154 154 155 158 163 167 169 171 172 174 177 180 185 190 194 199 202 210 217 220 224 227 230 232 229 226 230 240 251 260 259 261 262 261 249 224 217 212 209 209 210
157 163 160 159 159 161 166 176 175 177 180 181 184 190 193 199 207 217 222 224 229 232 233 236 239 241 239 236 238 242 251 244 247 258 258 260 254 232 224 220 217 216 216
166 171 171 169 170 171 178 175 179 184 186 188 192 198 197 201 215 226 233 236 237 236 236 238 240 244 245 237 244 249 246 242 243 251 255 259 259 246 235 227 225 225 225
171 173 176 177 178 180 186 175 186 191 192 199 204 207 208 211 223 233 233 241 240 239 234 243 244 237 234 230 231 237 244 245 240 245 251 258 261 256 241 230 230 232 234
172 177 178 180 182 188 189 184 189 193 197 204 212 214 210 214 221 225 218 210 207 211 215 227 238 239 236 236 236 240 245 240 237 237 246 254 252 245 235 231 233 236 239
176 179 180 183 186 189 190 191 195 200 201 205 211 215 211 211 214 211 207 199 202 206 217 225 232 239 240 242 242 241 242 238 237 237 240 244 237 230 230 234 237 240 244
173 176 180 185 185 179 182 189 194 202 206 203 209 213 209 208 204 193 193 194 203 207 215 219 226 234 242 244 249 248 245 240 238 239 233 238 233 230 232 238 243 245 248
169 169 177 184 181 172 171 181 184 185 188 201 210 209 204 198 192 182 182 191 201 203 212 223 238 245 250 249 254 261 261 253 247 246 241 230 232 237 239 242 245 246 248
168 166 176 184 182 178 173 177 183 181 175 196 203 202 204 201 189 177 180 195 200 190 197 220 235 251 257 257 261 266 266 268 262 254 248 240 232 238 243 244 244 245 246
183 173 177 178 179 183 180 180 185 185 195 206 204 203 207 203 191 178 184 194 186 180 204 227 225 227 248 259 264 264 262 264 265 263 254 249 243 241 241 247 244 242 244
200 189 182 180 181 181 178 176 181 194 222 221 205 202 202 203 195 181 183 188 179 183 214 225 236 240 237 246 267 275 268 262 258 250 250 251 249 248 244 241 238 242 243
202 201 188 182 183 176 171 179 186 207 221 231 224 206 191 190 186 179 182 191 189 198 214 219 222 241 249 237 259 292 288 264 255 251 247 245 249 255 255 243 232 228 239
194 199 189 183 184 182 182 181 183 185 206 218 223 218 205 195 192 192 195 202 204 210 222 225 216 224 243 217 200 249 306 317 302 265 252 245 257 272 269 257 236 229 230
174 181 176 180 191 186 176 158 144 139 147 197 230 234 228 212 209 209 210 212 215 212 223 227 219 217 232 241 205 186 209 253 300 301 287 263 257 256 262 267 251 242 234
136 133 127 148 156 161 155 155 165 174 192 214 221 232 253 234 230 226 227 224 225 224 229 233 228 219 218 237 240 221 209 197 225 296 301 289 273 254 254 264 274 263 237
100 104 111 116 107 103 116 135 137 137 161 155 66 44 1 339 301 264 245 240 237 234 235 237 235 227 218 222 226 232 235 226 211 226 278 303 312 280 267 264 261 251 225
91 98 103 107 103 97 101 103 110 119 113 94 73 60 38 24 11 356 329 292 265 256 251 245 240 233 227 224 224 222 215 226 221 217 251 277 290 290 287 273 257 220 184